GEESAT-3 06

Last updated on Sun Oct 06 2024 00:02:04 GMT+0000 (Coordinated Universal Time)

1 61016U 24159F 24279.52520613 .00018837 00000+0 18498-2 0 9991 2 61016 49.9974 99.7233 0012183 336.1554 23.8822 14.92089684 4429
UTC large
Height (km)
Speed (km/s)
/
Latitude / Longitude
Inclination (degrees)
Orbital Period (minutes)
Azimuth
Elevation
Range (km)
Doppler Factor

Next 0 passes for location: London (51.5072 / 0.1276)

Sorry there are no passes over London.